Folgende Datensätze stehen als ungeprüfte Rohdaten zur Verfügung

ZeitFeinstaubµg/m³
Grafik anzeigen
Lufttemperatur°C
Grafik anzeigen
rel. Luftfeuchte%
Grafik anzeigen
Windrichtung°Windgeschwindigkeitm/s
Grafik anzeigen
Stickstoffdioxidµg/m³
Grafik anzeigen
24.06.2019 18:00:0014,0027,6849,68105,130,647,93
24.06.2019 17:30:0013,5026,8352,50269,210,1612,79
24.06.2019 17:00:0010,0026,5752,03329,690,3510,39
24.06.2019 16:30:0011,1627,0051,0146,990,258,24
24.06.2019 16:00:0019,0027,7450,33138,400,3713,95
24.06.2019 15:30:0019,0027,4352,1797,630,5316,96
24.06.2019 15:00:0019,0027,2557,10286,610,5037,30
24.06.2019 14:30:0018,7525,0667,93188,370,3844,35
24.06.2019 14:00:0017,0023,8673,17188,920,2128,04
24.06.2019 13:30:0016,5025,7059,35210,460,7124,13
24.06.2019 13:00:0013,0025,2259,51231,790,3737,29
24.06.2019 12:30:0013,5025,4258,33193,210,6528,33
24.06.2019 12:00:0017,0026,1455,11233,450,5221,72
24.06.2019 11:30:0016,4926,0854,92303,360,6420,93
24.06.2019 11:00:0013,0026,6852,54326,430,3721,09
24.06.2019 10:30:0014,0025,8055,97274,760,3122,06
24.06.2019 10:00:0021,0025,6957,01128,340,4722,67
24.06.2019 09:30:0021,0025,0656,42196,040,1432,11
24.06.2019 09:00:0021,0024,1457,74325,441,0142,07
24.06.2019 08:30:0021,5023,2162,34328,692,1236,03
24.06.2019 08:00:0025,0022,5764,17329,932,2445,85
24.06.2019 07:30:0023,9022,2465,54327,931,8451,76
24.06.2019 07:00:0016,0021,7169,54326,521,2269,18
24.06.2019 06:30:0015,5120,6275,55334,100,8351,96
24.06.2019 06:00:0012,0019,1983,97326,400,1324,10
24.06.2019 05:30:0011,6318,7886,2198,300,0719,29
24.06.2019 05:00:009,0018,9981,52320,040,5315,79
24.06.2019 04:30:009,2518,4187,27310,960,149,39
24.06.2019 04:00:0011,0017,9991,48178,680,119,44
24.06.2019 03:30:0010,6318,3090,4475,150,099,52
24.06.2019 03:00:008,0018,3590,28293,980,168,33
24.06.2019 02:30:008,0018,6888,57105,490,199,09
24.06.2019 02:00:008,0018,8287,39317,950,546,31
24.06.2019 01:30:008,2519,1086,30316,710,375,04
24.06.2019 01:00:0010,0019,3584,6128,710,146,78
24.06.2019 00:30:0011,0219,7680,34345,220,518,14
24.06.2019 00:00:0018,0019,8978,94351,560,787,78
23.06.2019 23:30:0017,1420,1176,87337,330,948,46
23.06.2019 23:00:0011,0020,4374,99338,511,3411,11
23.06.2019 22:30:0010,6320,0080,12335,201,0714,27
23.06.2019 22:00:008,0019,4690,23328,470,6919,81
23.06.2019 21:30:007,7519,3694,19193,790,1016,13
23.06.2019 21:00:006,0019,5793,00106,060,0413,77
23.06.2019 20:30:006,3719,9390,90123,830,0414,80
23.06.2019 20:00:009,0020,3588,21180,140,1014,30
23.06.2019 19:30:008,6320,7086,88219,540,2014,29
23.06.2019 19:00:006,0021,4283,61230,690,4512,98
23.06.2019 18:30:006,0022,0081,69223,360,6413,58
23.06.2019 18:00:006,0021,4483,43206,240,499,39
23.06.2019 17:30:006,0021,6182,58188,810,525,05
23.06.2019 17:00:006,0021,8278,85228,750,213,84
23.06.2019 16:30:006,1219,6789,97239,720,483,92
23.06.2019 16:00:007,0020,6485,68114,970,996,43
23.06.2019 15:30:007,0021,7379,83245,670,155,75
23.06.2019 15:00:007,0021,9477,68283,230,574,65
23.06.2019 14:30:007,0021,3880,98280,190,294,50
23.06.2019 14:00:007,0020,8885,86246,190,463,98
23.06.2019 13:30:006,7520,1289,30189,380,655,13
23.06.2019 13:00:005,0019,4591,90209,840,559,27
23.06.2019 12:30:005,0018,8195,43224,580,348,44
23.06.2019 12:00:005,0018,3895,97189,800,348,67
23.06.2019 11:30:005,5018,2696,05212,760,327,73
23.06.2019 11:00:009,0017,9395,71234,200,128,61
23.06.2019 10:30:008,8817,7295,50209,220,326,71
23.06.2019 10:00:008,0017,5097,71185,750,288,90
23.06.2019 09:30:008,0017,1697,31211,740,154,80
23.06.2019 09:00:008,0016,9798,31298,130,286,78
23.06.2019 08:30:008,6216,8998,12309,110,655,78
23.06.2019 08:00:0013,0016,7898,81296,580,174,48
23.06.2019 07:30:0012,2616,7998,22306,830,264,61
23.06.2019 07:00:007,0016,7897,99286,460,114,65
23.06.2019 06:30:007,2516,7298,27296,650,398,59
23.06.2019 06:00:009,0016,8597,29321,090,6311,50
23.06.2019 05:30:009,4916,8797,01328,730,8010,80
23.06.2019 05:00:0013,0016,8397,01325,940,779,53
23.06.2019 04:30:0012,5117,0396,65334,430,908,33
23.06.2019 04:00:009,0017,0598,47330,190,918,67
23.06.2019 03:30:009,2517,0498,35315,500,7011,23
23.06.2019 03:00:0011,0017,0498,03314,420,7411,51
23.06.2019 02:30:0010,8817,1097,10322,030,8411,42
23.06.2019 02:00:0010,0017,4893,68319,850,7912,41
23.06.2019 01:30:0010,7617,6791,62321,950,5612,26
23.06.2019 01:00:0016,0017,6790,57312,260,5411,92
23.06.2019 00:30:0016,1217,9389,00357,640,8110,29
23.06.2019 00:00:0017,0018,2587,32334,671,4211,91
22.06.2019 23:30:0016,1518,2388,72332,930,9917,71
22.06.2019 23:00:0010,0018,1489,27337,781,1217,83
22.06.2019 22:30:0010,7517,9691,15341,611,2914,18
22.06.2019 22:00:0016,0017,9891,51313,610,7413,24
22.06.2019 21:30:0014,8918,1691,98327,521,0313,70
22.06.2019 21:00:007,0018,2892,88327,830,6823,30
22.06.2019 20:30:007,0018,5090,64312,470,1916,90
22.06.2019 20:00:007,0019,2784,66298,140,1513,28
22.06.2019 19:30:006,8820,3179,84321,260,2211,22
22.06.2019 19:00:006,0020,9177,40326,120,128,05
22.06.2019 18:30:006,1221,0578,09178,740,294,71
22.06.2019 18:00:007,0020,9579,44242,750,5710,38
22.06.2019 17:30:007,0020,4581,46240,300,5110,29
22.06.2019 17:00:007,0019,3586,85325,111,1415,85
22.06.2019 16:30:007,3717,6095,45311,380,8320,26
22.06.2019 16:00:0010,0017,0797,12317,880,9217,56
22.06.2019 15:30:0010,2517,2596,88342,861,1418,84
22.06.2019 15:00:0012,0017,5296,37316,740,8212,99
22.06.2019 14:30:0011,7518,0196,34288,990,7317,33
22.06.2019 14:00:0010,0018,2096,36313,270,9114,69
22.06.2019 13:30:009,8818,6795,30271,540,3913,26
22.06.2019 13:00:009,0019,0294,64196,310,2314,76
22.06.2019 12:30:0010,1418,9893,09209,060,0712,44
22.06.2019 12:00:0018,0019,0792,08273,840,2015,47
22.06.2019 11:30:0017,0118,7593,83301,600,4214,52
22.06.2019 11:00:0010,0018,3095,24222,190,3114,03
22.06.2019 10:30:0010,6119,8684,90161,740,228,87
22.06.2019 10:00:0015,0020,2080,25219,840,4811,06
22.06.2019 09:30:0014,3920,0479,55179,160,3914,08
22.06.2019 09:00:0010,0020,4177,41170,240,5314,45
22.06.2019 08:30:009,7619,8478,52170,500,3619,09
22.06.2019 08:00:008,0020,4771,52174,870,2912,24
22.06.2019 07:30:008,2520,5369,40304,920,6710,85
22.06.2019 07:00:0010,0019,5473,81329,101,3511,78
22.06.2019 06:30:0010,0018,8776,56333,121,6613,32
22.06.2019 06:00:0010,0018,3978,54330,861,1114,71
22.06.2019 05:30:009,8818,1679,44329,131,3813,65
22.06.2019 05:00:009,0018,1079,94337,881,2414,71
22.06.2019 04:30:008,7517,9581,05334,761,0613,40
22.06.2019 04:00:007,0017,5287,10150,740,1713,31
22.06.2019 03:30:006,7617,5188,18149,620,0714,96
22.06.2019 03:00:005,0018,4179,30176,490,259,82
22.06.2019 02:30:005,4919,2772,30325,990,587,75
22.06.2019 02:00:009,0019,5471,97330,820,948,31
22.06.2019 01:30:009,4919,9270,54318,871,086,05
22.06.2019 01:00:0013,0020,0371,45317,190,938,55
22.06.2019 00:30:0013,3920,1073,80309,310,7510,43
22.06.2019 00:00:0016,0020,1376,62322,121,5113,53
21.06.2019 23:30:0015,1619,9080,44316,790,6517,82
21.06.2019 23:00:009,0019,9180,76325,510,8219,80
21.06.2019 22:30:008,8820,0180,33330,641,2119,30
21.06.2019 22:00:008,0020,3278,11329,881,4915,56
21.06.2019 21:30:008,6220,4473,64344,790,3315,25
21.06.2019 21:00:0013,0020,7974,52315,590,4116,00
21.06.2019 20:30:0012,7520,6575,28306,470,5112,79
21.06.2019 20:00:0011,0020,9872,96324,441,078,29
21.06.2019 19:30:0010,8821,2472,46315,151,758,18
21.06.2019 19:00:0010,0022,9468,45256,721,1211,84
21.06.2019 18:30:0010,0024,3861,57217,400,6516,79
21.06.2019 18:00:0010,0024,8158,96191,480,4212,76
21.06.2019 17:30:009,8825,1957,01182,680,4710,11
21.06.2019 17:00:009,0025,8254,23224,300,469,72
21.06.2019 16:30:008,6425,5053,83317,180,8913,31
21.06.2019 16:00:006,0025,4253,38307,540,799,86
21.06.2019 15:30:006,0026,9148,33186,720,607,11
21.06.2019 15:00:006,0028,1645,24186,640,795,35
21.06.2019 14:30:006,4927,6944,13179,400,595,37
21.06.2019 14:00:0010,0027,5543,51182,800,873,86
21.06.2019 13:30:009,3926,9345,51162,440,324,35
21.06.2019 13:00:005,0026,9445,61197,730,554,50
21.06.2019 12:30:005,6126,1547,30165,510,124,95
21.06.2019 12:00:0010,0025,7546,76172,480,605,10
21.06.2019 11:30:0010,1226,0344,65120,120,424,69
21.06.2019 11:00:0011,0025,3448,24120,560,694,45
21.06.2019 10:30:0011,4925,0650,77337,900,205,74
21.06.2019 10:00:0015,0024,4353,00185,740,277,81
21.06.2019 09:30:0014,3723,2659,91212,140,5711,28
21.06.2019 09:00:0010,0022,1464,43188,850,6918,82
21.06.2019 08:30:0010,9721,1369,31173,620,7722,18
21.06.2019 08:00:0018,0021,2669,39169,750,8419,38
21.06.2019 07:30:0017,7620,4272,11166,180,7620,35
21.06.2019 07:00:0016,0019,6174,64174,280,8120,24
21.06.2019 06:30:0015,2718,8276,80161,610,5124,37
21.06.2019 06:00:0010,0017,1383,67101,930,3820,98
21.06.2019 05:30:009,5116,4087,24158,580,3712,60
21.06.2019 05:00:006,0016,2488,17329,350,1614,14
21.06.2019 04:30:006,2416,1889,1075,120,078,70
21.06.2019 04:00:008,0016,1290,88153,930,125,85
21.06.2019 03:30:008,0016,4188,91169,300,075,74
21.06.2019 03:00:008,0016,7587,69116,900,195,59
21.06.2019 02:30:008,2417,1484,5951,360,025,09
21.06.2019 02:00:0010,0017,9479,97342,600,505,02
21.06.2019 01:30:0010,5018,2580,69331,151,264,07
21.06.2019 01:00:0014,0018,5981,19337,621,224,01
21.06.2019 00:30:0013,8819,4878,54355,541,413,68
21.06.2019 00:00:0013,0020,4171,60332,811,914,58
20.06.2019 23:30:0014,0020,4680,568,500,527,62
20.06.2019 23:00:0021,0021,5372,45338,101,306,94
20.06.2019 22:30:0020,7521,7274,55329,541,7416,04
20.06.2019 22:00:0019,0020,8483,91338,310,5031,70
20.06.2019 21:30:0018,7620,4885,80323,540,3837,06
20.06.2019 21:00:0017,0020,5084,44313,330,1932,99
20.06.2019 20:30:0016,6420,5183,86312,350,1216,76
20.06.2019 20:00:0014,0020,6185,3315,850,0519,64
20.06.2019 19:30:0013,8821,4683,04322,570,4415,96
20.06.2019 19:00:0013,0021,9979,99330,410,6116,04
20.06.2019 18:30:0013,2421,3487,32317,030,1416,21